KE6AFE Weather Reports


time (UTC)temp
C
wind
direction
speed
KPH
gust
KPH
rain 1hr
cm
rain 24hr
cm
rain mn
cm
humidity
%
barometer
mb
20220629035401 20 173 0.0 0.0 0.00 0.00 0.00 54 1015.6
20220629034351 20 173 0.0 0.0 0.00 0.00 0.00 53 1015.7
20220629033341 21 172 0.0 0.0 0.00 0.00 0.00 52 1015.7
20220629032331 21 172 0.0 0.0 0.00 0.00 0.00 51 1015.6
20220629031321 21 172 0.0 0.0 0.00 0.00 0.00 50 1015.7
20220629030311 21 172 0.0 0.0 0.00 0.00 0.00 50 1015.7
20220629025301 22 182 0.0 0.0 0.00 0.00 0.00 49 1015.7
20220629024251 22 184 0.0 0.0 0.00 0.00 0.00 48 1015.7
20220629023241 22 181 0.0 1.6 0.00 0.00 0.00 48 1015.7
20220629022231 22 151 0.0 3.2 0.00 0.00 0.00 47 1015.8
20220629021221 22 113 0.0 1.6 0.00 0.00 0.00 47 1015.6
20220629020211 23 107 0.0 0.0 0.00 0.00 0.00 46 1015.6
20220629015201 23 116 1.6 4.8 0.00 0.00 0.00 44 1015.6
20220629014151 23 123 1.6 8.0 0.00 0.00 0.00 44 1015.6
20220629013141 24 122 1.6 4.8 0.00 0.00 0.00 43 1015.6
20220629012131 25 120 1.6 4.8 0.00 0.00 0.00 41 1015.6
20220629011121 25 124 0.0 3.2 0.00 0.00 0.00 41 1015.6
20220629010111 25 126 0.0 3.2 0.00 0.00 0.00 40 1015.7
20220629005101 26 132 1.6 0.0 0.00 0.00 0.00 38 1015.9
20220629004051 26 130 1.6 4.8 0.00 0.00 0.00 37 1015.9
20220629003041 27 135 0.0 1.6 0.00 0.00 0.00 37 1016.0
20220629002031 27 135 0.0 4.8 0.00 0.00 0.00 36 1016.0
20220629001021 27 117 0.0 8.0 0.00 0.00 0.00 36 1016.0
20220629000011 28 107 0.0 4.8 0.00 0.00 0.00 34 1016.1
20220628235001 28 100 0.0 3.2 0.00 0.00 0.00 34 1016.0
20220628233951 28 123 0.0 3.2 0.00 0.00 0.00 35 1016.1
20220628232941 28 93 0.0 4.8 0.00 0.00 0.00 33 1016.1
20220628231931 29 117 0.0 1.6 0.00 0.00 0.00 33 1016.1
20220628230921 29 106 1.6 4.8 0.00 0.00 0.00 32 1016.1
20220628225911 29 137 1.6 4.8 0.00 0.00 0.00 33 1016.1
20220628224901 29 132 3.2 11.3 0.00 0.00 0.00 32 1016.1
20220628223851 29 130 0.0 4.8 0.00 0.00 0.00 32 1016.2
20220628222841 29 135 1.6 4.8 0.00 0.00 0.00 33 1016.3
20220628221831 28 156 1.6 4.8 0.00 0.00 0.00 34 1016.4
20220628220821 28 146 0.0 0.0 0.00 0.00 0.00 36 1016.5
20220628215811 28 152 1.6 4.8 0.00 0.00 0.00 37 1016.6
20220628214759 28 157 0.0 1.6 0.00 0.00 0.00 39 1016.6
20220628213749 27 162 1.6 8.0 0.00 0.00 0.00 40 1016.6
20220628212739 27 166 0.0 1.6 0.00 0.00 0.00 41 1016.7
20220628211729 27 195 1.6 0.0 0.00 0.00 0.00 43 1016.7
20220628210719 26 196 1.6 4.8 0.00 0.00 0.00 43 1016.7
20220628205709 26 154 3.2 4.8 0.00 0.00 0.00 45 1016.8
20220628204659 25 166 3.2 4.8 0.00 0.00 0.00 45 1016.9
20220628203649 25 181 0.0 0.0 0.00 0.00 0.00 45 1016.8
20220628202639 25 182 0.0 0.0 0.00 0.00 0.00 46 1016.9
20220628201629 24 180 0.0 0.0 0.00 0.00 0.00 46 1016.9
20220628200619 23 187 0.0 0.0 0.00 0.00 0.00 47 1016.9
20220628195609 23 182 0.0 0.0 0.00 0.00 0.00 48 1017.0
20220628194559 23 188 0.0 0.0 0.00 0.00 0.00 50 1017.0
20220628193549 22 179 0.0 0.0 0.00 0.00 0.00 52 1017.1
20220628192539 22 170 0.0 0.0 0.00 0.00 0.00 53 1017.2
20220628191529 21 170 0.0 0.0 0.00 0.00 0.00 55 1017.2
20220628190519 21 173 0.0 0.0 0.00 0.00 0.00 56 1017.2
20220628185509 21 169 0.0 0.0 0.00 0.00 0.00 57 1017.2
20220628184459 20 175 0.0 0.0 0.00 0.00 0.00 58 1017.1
20220628183449 20 178 0.0 0.0 0.00 0.00 0.00 61 1017.1
20220628182439 19 182 0.0 0.0 0.00 0.00 0.00 61 1017.2
20220628181429 19 182 0.0 0.0 0.00 0.00 0.00 62 1017.3
20220628180419 18 180 0.0 0.0 0.00 0.00 0.00 63 1017.2
20220628175409 18 184 0.0 0.0 0.00 0.00 0.00 64 1017.1
20220628174359 18 183 0.0 0.0 0.00 0.00 0.00 63 1017.2
20220628173349 18 192 0.0 0.0 0.00 0.00 0.00 64 1017.2
20220628172339 18 203 0.0 0.0 0.00 0.00 0.00 64 1017.1
20220628171329 17 205 0.0 0.0 0.00 0.00 0.00 65 1017.1
20220628170319 17 154 0.0 0.0 0.00 0.00 0.00 67 1017.1
20220628165540 17 155 0.0 0.0 0.00 0.00 0.00 68 1017.1
20220628165309 17 155 0.0 0.0 0.00 0.00 0.00 68 1017.1
20220628164259 16 155 0.0 0.0 0.00 0.00 0.00 69 1017.2
20220628163249 16 154 0.0 0.0 0.00 0.00 0.00 70 1017.2
20220628162239 16 154 0.0 0.0 0.00 0.00 0.00 72 1017.2
20220628161229 15 155 0.0 0.0 0.00 0.00 0.00 73 1017.3
20220628160219 15 154 0.0 0.0 0.00 0.00 0.00 73 1017.3
20220628155209 15 154 0.0 0.0 0.00 0.00 0.00 73 1017.3
20220628154159 15 154 0.0 0.0 0.00 0.00 0.00 73 1017.3
20220628153149 15 154 0.0 0.0 0.00 0.00 0.00 73 1017.3
20220628152139 15 154 0.0 0.0 0.00 0.00 0.00 73 1017.1
20220628151129 15 153 0.0 0.0 0.00 0.00 0.00 72 1017.1
20220628150119 15 150 0.0 0.0 0.00 0.00 0.00 72 1017.0
20220628145109 15 146 0.0 0.0 0.00 0.00 0.00 73 1016.9
20220628144059 14 146 0.0 0.0 0.00 0.00 0.00 73 1016.7
20220628143049 13 146 0.0 0.0 0.00 0.00 0.00 75 1016.6
20220628142039 13 146 0.0 0.0 0.00 0.00 0.00 76 1016.6
20220628141029 13 146 0.0 0.0 0.00 0.00 0.00 77 1016.5
20220628140019 12 146 0.0 0.0 0.00 0.00 0.00 77 1016.5
20220628135009 12 146 0.0 0.0 0.00 0.00 0.00 78 1016.4
20220628133959 12 146 0.0 0.0 0.00 0.00 0.00 78 1016.5
20220628132949 12 145 0.0 0.0 0.00 0.00 0.00 78 1016.5
20220628131939 12 146 0.0 0.0 0.00 0.00 0.00 77 1016.4
20220628130929 12 146 0.0 0.0 0.00 0.00 0.00 77 1016.4
20220628125919 12 146 0.0 0.0 0.00 0.00 0.00 78 1016.4
20220628124909 12 146 0.0 0.0 0.00 0.00 0.00 77 1016.5
20220628123859 12 146 0.0 0.0 0.00 0.00 0.00 77 1016.3
20220628122849 12 146 0.0 0.0 0.00 0.00 0.00 77 1016.3
20220628121839 12 146 0.0 0.0 0.00 0.00 0.00 76 1016.3
20220628120829 12 146 0.0 0.0 0.00 0.00 0.00 75 1016.3
20220628115819 12 146 0.0 0.0 0.00 0.00 0.00 75 1016.3
20220628114809 12 146 0.0 0.0 0.00 0.00 0.00 74 1016.2
20220628113759 12 146 0.0 0.0 0.00 0.00 0.00 74 1016.2
20220628112749 12 146 0.0 0.0 0.00 0.00 0.00 74 1016.3
20220628111739 12 146 0.0 0.0 0.00 0.00 0.00 73 1016.2
20220628110729 12 146 0.0 0.0 0.00 0.00 0.00 73 1016.1
20220628105719 12 146 0.0 0.0 0.00 0.00 0.00 73 1016.2
20220628104709 12 146 0.0 0.0 0.00 0.00 0.00 73 1016.2
20220628103659 12 146 0.0 0.0 0.00 0.00 0.00 73 1016.1
20220628102649 12 146 0.0 0.0 0.00 0.00 0.00 73 1016.2
20220628101639 12 146 0.0 0.0 0.00 0.00 0.00 73 1016.3
20220628100629 12 146 0.0 0.0 0.00 0.00 0.00 73 1016.4
20220628100117 13 146 0.0 0.0 0.00 0.00 0.00 73 1016.5
20220628095619 13 146 0.0 0.0 0.00 0.00 0.00 73 1016.5
20220628094609 13 146 0.0 0.0 0.00 0.00 0.00 72 1016.5
20220628093559 13 146 0.0 0.0 0.00 0.00 0.00 72 1016.5
20220628092549 13 146 0.0 0.0 0.00 0.00 0.00 71 1016.5
20220628091539 13 146 0.0 0.0 0.00 0.00 0.00 71 1016.5
20220628090529 13 146 0.0 0.0 0.00 0.00 0.00 71 1016.6
20220628085519 13 146 0.0 0.0 0.00 0.00 0.00 71 1016.6
20220628084509 13 146 0.0 0.0 0.00 0.00 0.00 71 1016.6
20220628083459 14 146 0.0 0.0 0.00 0.00 0.00 72 1016.6
20220628082449 14 146 0.0 0.0 0.00 0.00 0.00 71 1016.7
20220628081439 14 146 0.0 0.0 0.00 0.00 0.00 71 1016.8
20220628080429 15 146 0.0 0.0 0.00 0.00 0.00 71 1016.8
20220628075419 15 146 0.0 0.0 0.00 0.00 0.00 71 1016.9
20220628074409 15 146 0.0 0.0 0.00 0.00 0.00 72 1016.9
20220628073359 15 146 0.0 0.0 0.00 0.00 0.00 72 1016.9
20220628072349 15 146 0.0 0.0 0.00 0.00 0.00 71 1016.9
20220628071339 15 146 0.0 0.0 0.00 0.00 0.00 72 1016.9
20220628070329 15 146 0.0 0.0 0.00 0.00 0.00 72 1016.9
20220628065319 15 146 0.0 0.0 0.00 0.00 0.00 72 1017.0
20220628064309 15 146 0.0 0.0 0.00 0.00 0.00 71 1016.9
20220628063259 15 146 0.0 0.0 0.00 0.00 0.00 70 1016.9
20220628062249 15 146 0.0 0.0 0.00 0.00 0.00 69 1016.9
20220628061239 15 146 0.0 0.0 0.00 0.00 0.00 69 1016.9
20220628060229 16 146 0.0 0.0 0.00 0.00 0.00 69 1016.9
20220628055219 16 146 0.0 0.0 0.00 0.00 0.00 69 1017.0
20220628054209 16 146 0.0 0.0 0.00 0.00 0.00 67 1017.0
20220628053159 16 146 0.0 0.0 0.00 0.00 0.00 67 1016.9
20220628052149 16 146 0.0 0.0 0.00 0.00 0.00 66 1016.9
20220628051139 16 146 0.0 0.0 0.00 0.00 0.00 66 1016.9
20220628050129 16 146 0.0 0.0 0.00 0.00 0.00 67 1016.9
20220628045119 17 146 0.0 0.0 0.00 0.00 0.00 66 1016.9
20220628044109 17 146 0.0 0.0 0.00 0.00 0.00 65 1016.8
20220628043059 17 146 0.0 0.0 0.00 0.00 0.00 65 1016.7
20220628042049 17 146 0.0 0.0 0.00 0.00 0.00 65 1016.7
20220628041039 17 146 0.0 0.0 0.00 0.00 0.00 64 1016.7
20220628040029 18 146 0.0 0.0 0.00 0.00 0.00 63 1016.7